Weather in Belyaevka

Russia / Orenburg Oblast     51°23′49″N   56°24′28″E
temp.,
°C
wind,
m/s
gust,
m/s
humid.,
%
clouds,
%
prec.,
mm/h
press.,
hPa
HPBL,
m
25 february, thu
thu2523:00−22nnw61388100 0.0 1024416
02:00−23nw4109295 0.0 1027202
05:00−27nw369658 0.0 102982
08:00−29nw33960 0.0 103233
11:00−26nw35940 0.0 1033179
14:00−23nw23880 0.0 1034256
17:00−23wsw22948 0.0 103479
20:00−27s229830 0.0 103519
26 february, fri
fri2623:00−28s239759 0.0 103521
02:00−27se3495100 0.0 103387
05:00−25se3594100 0.0 1031166
08:00−23se4898100 0.3 1029269
11:00−19se5897100 0.6 1028398
14:00−15sse5994100 0.4 1025566
17:00−14sse5894100 0.9 1023616
20:00−14se51095100 0.6 1022451
27 february, sat
sat2723:00−13se51195100 0.9 1020428
02:00−12sse51194100 0.3 1017423
05:00−10sse61295100 0.9 1014446
08:00−8s61395100 1.4 1009610
11:00−5s81496100 6.6 1007698
14:00−1ssw81394100 2.1 1004522
17:00+1sw511100100 3.1 1004389
20:00+1sw3899100 0.1 1003302
28 february, sun
sun2823:000wsw5898100 0.3 1003447
02:000sw61098100 0.8 1002595
05:00−1wsw5998100 1.3 1003511
08:00−3sw3998100 0.5 1003229
11:00−1sw699499 0.8 1004549
14:000sw599796 0.3 1005665
17:000sw6109298 0.7 1005863
20:00−2ssw4998100 0.8 1006401
1 march, mon
mon123:00−9sw5109599 1.2 1009262
02:00−13sw489692 0.1 1011209
05:00−15wsw369796 0.3 1013174
08:00−18wsw239899 0.1 101529
11:00−16wsw2395100 0.1 1016228
14:00−14wsw2390100 0.0 1017345
17:00−13w3493100 0.1 1018367
20:00−17w3398100 0.1 101935